DW0268 Weather Reports


Display with metric or nautical units.
time (UTC)temp
F
wind
direction
speed
MPH
gust
MPH
rain 1hr
in
rain 24hr
in
rain mn
in
humidity
%
barometer
mb
20260506023101 53 329 9.0 19.0 0.03 0.70 0.70 96 1011.3
20260506021655 54 348 10.0 18.0 0.05 0.70 0.70 97 1011.0
20260506020051 54 326 14.0 18.0 0.06 0.70 0.70 97 1010.7
20260506014549 54 5 11.0 18.0 0.08 0.69 0.69 97 1010.1
20260506013050 54 360 10.0 18.0 0.08 0.67 0.67 97 1009.7
20260506011545 55 5 9.0 16.0 0.06 0.65 0.65 97 1009.0
20260506010054 56 348 8.0 15.0 0.05 0.64 0.64 97 1008.7
20260506004541 56 355 13.0 20.0 0.03 0.61 0.61 97 1008.8
20260506003037 58 346 8.0 15.0 0.03 0.59 0.59 96 1008.5
20260506001534 65 317 7.0 12.0 0.05 0.59 0.59 98 1008.2
20260506000033 65 193 9.0 16.0 0.06 0.59 0.59 98 1007.8
20260505234534 65 175 10.0 15.0 0.08 0.57 0.57 98 1008.3
20260505233029 65 201 10.0 17.0 0.07 0.56 0.56 98 1008.6
20260505231528 65 179 11.0 17.0 0.08 0.54 0.54 98 1008.5
20260505230037 65 184 10.0 15.0 0.10 0.53 0.53 97 1008.4
20260505224525 64 180 6.0 10.0 0.09 0.50 0.50 97 1008.4
20260505223025 64 178 6.0 12.0 0.10 0.49 0.49 97 1008.6
20260505221524 64 173 7.0 13.0 0.09 0.46 0.46 97 1008.8
20260505220026 64 180 7.0 14.0 0.09 0.43 0.43 97 1008.7
20260505214522 64 177 7.0 12.0 0.10 0.41 0.41 97 1008.7
20260505213026 64 180 6.0 11.0 0.10 0.39 0.39 96 1009.0
20260505211521 64 185 8.0 12.0 0.09 0.37 0.37 96 1009.2
20260505210019 64 179 8.0 14.0 0.07 0.34 0.34 96 1009.3
20260505204518 64 182 11.0 16.0 0.05 0.31 0.31 95 1009.3
20260505203027 64 179 11.0 18.0 0.03 0.28 0.28 95 1009.3
20260505201518 64 185 11.0 18.0 0.03 0.28 0.28 95 1009.4
20260505200016 64 227 11.0 22.0 0.02 0.27 0.27 94 1009.7
20260505194516 63 189 12.0 19.0 0.02 0.26 0.26 95 1009.7
20260505193013 63 200 9.0 17.0 0.03 0.26 0.26 96 1009.7
20260505191513 63 204 10.0 21.0 0.03 0.25 0.25 96 1009.9
20260505190015 63 183 10.0 18.0 0.03 0.25 0.25 95 1009.9
20260505184511 63 194 12.0 22.0 0.02 0.24 0.24 95 1009.8
20260505183010 63 187 14.0 19.0 0.01 0.23 0.23 95 1009.8
20260505181508 63 184 16.0 25.0 0.00 0.22 0.22 94 1009.9
20260505180008 63 184 15.0 22.0 0.00 0.22 0.22 93 1010.2
20260505174507 64 192 16.0 24.0 0.00 0.22 0.22 92 1010.2
20260505173007 64 181 11.0 20.0 0.00 0.22 0.22 92 1010.4
20260505171505 65 195 8.0 12.0 0.00 0.22 0.22 92 1010.6
20260505170009 64 219 8.0 15.0 0.00 0.22 0.22 93 1010.8
20260505164504 64 185 10.0 15.0 0.00 0.22 0.22 92 1010.8
20260505163009 64 174 9.0 15.0 0.00 0.22 0.22 92 1010.7
20260505161503 64 192 10.0 13.0 0.00 0.22 0.22 93 1010.6
20260505153100 63 163 9.0 14.0 0.00 0.22 0.22 93 1010.8
20260505151621 63 205 11.0 16.0 0.00 0.22 0.22 92 1010.9
20260505124551 61 195 10.0 17.0 0.17 0.17 0.17 92 1011.1
20260505123047 61 180 8.0 15.0 0.11 0.11 0.11 90 1011.1
20260505121545 62 188 10.0 16.0 0.04 0.04 0.04 88 1010.8
20260505120100 63 199 9.0 15.0 0.00 0.00 0.00 82 1010.6
20260505114538 64 199 7.0 14.0 0.00 0.00 0.00 77 1010.2
20260505113043 64 202 9.0 14.0 0.00 0.00 0.00 77 1010.1
20260505111538 64 182 9.0 15.0 0.00 0.00 0.00 76 1009.8
20260505101530 64 175 5.0 10.0 0.00 0.00 0.00 75 1009.8
20260505100029 64 174 6.0 10.0 0.00 0.00 0.00 74 1009.9
20260505094527 65 174 8.0 12.0 0.00 0.00 0.00 73 1009.8
20260505093028 65 194 8.0 12.0 0.00 0.00 0.00 72 1010.0
20260505091529 65 207 8.0 10.0 0.00 0.00 0.00 72 1010.2
20260505090037 65 209 7.0 10.0 0.00 0.00 0.00 71 1010.3
20260505084525 65 196 8.0 11.0 0.00 0.00 0.00 71 1010.3
20260505083026 65 192 7.0 11.0 0.00 0.00 0.00 71 1009.8
20260505081522 65 190 10.0 13.0 0.00 0.00 0.00 70 1009.7
20260505080020 65 193 9.0 16.0 0.00 0.00 0.00 69 1009.6
20260505074520 65 191 11.0 15.0 0.00 0.00 0.00 69 1009.4
20260505073029 65 177 13.0 20.0 0.00 0.00 0.00 69 1009.2
20260505071519 65 185 11.0 18.0 0.00 0.00 0.00 69 1009.3
20260505070014 65 205 12.0 20.0 0.00 0.00 0.00 69 1009.6
20260505064530 65 180 12.0 20.0 0.00 0.00 0.00 69 1010.2
20260505063009 65 184 11.0 18.0 0.00 0.00 0.00 68 1010.3
20260505061512 66 180 12.0 17.0 0.00 0.00 0.00 68 1010.8
20260505060104 66 180 12.0 18.0 0.00 0.00 0.00 68 1010.8
20260505054627 66 187 10.0 16.0 0.00 0.00 0.00 67 1011.1
20260505053107 67 169 11.0 19.0 0.00 0.00 0.00 66 1011.0
20260505051552 67 182 10.0 17.0 0.00 0.00 0.00 65 1011.1
20260505041555 69 188 10.0 17.0 0.00 0.00 0.00 63 1011.4
20260505040047 69 203 8.0 12.0 0.00 0.00 0.00 62 1011.3
20260505034545 69 192 9.0 15.0 0.00 0.00 0.00 62 1011.3
20260505033047 69 178 11.0 18.0 0.00 0.00 0.00 61 1011.3
20260505031557 69 175 11.0 16.0 0.00 0.00 0.00 62 1011.2
20260505030042 70 184 9.0 14.0 0.00 0.00 0.00 61 1011.1
20260505024543 70 186 9.0 13.0 0.00 0.00 0.00 60 1010.7